CW6677 Weather Reports


time (UTC)temp
F
wind
direction
speed
knots
gust
knots
rain 1hr
in
rain 24hr
in
rain mn
in
humidity
%
barometer
mb
20260507142506 50 266 2.6 6.1 0.00 0.00 0.00 78 1021.0
20260507142006 50 240 2.6 6.1 0.00 0.00 0.00 78 1020.8
20260507141521 50 246 2.6 6.1 0.00 0.00 0.00 78 1020.8
20260507141010 50 221 1.7 4.3 0.00 0.00 0.00 79 1020.8
20260507140509 50 263 2.6 4.3 0.00 0.00 0.00 78 1020.7
20260507140025 51 213 2.6 4.3 0.00 0.00 0.00 80 1020.7
20260507135512 50 250 1.7 4.3 0.00 0.00 0.00 80 1020.6
20260507135005 51 227 1.7 2.6 0.00 0.00 0.00 80 1020.6
20260507134511 50 218 0.9 3.5 0.00 0.00 0.00 81 1020.6
20260507134005 50 225 1.7 3.5 0.00 0.00 0.00 80 1020.5
20260507133506 50 264 1.7 3.5 0.00 0.00 0.00 80 1020.5
20260507133014 50 234 1.7 3.5 0.00 0.00 0.00 80 1020.6
20260507132505 50 219 1.7 2.6 0.00 0.00 0.00 81 1020.5
20260507132005 50 223 0.9 2.6 0.00 0.00 0.00 80 1020.5
20260507131526 50 225 1.7 2.6 0.00 0.00 0.00 80 1020.5
20260507131010 50 196 0.9 2.6 0.00 0.00 0.00 80 1020.4
20260507130510 51 238 0.9 3.5 0.00 0.00 0.00 80 1020.4
20260507130040 51 232 0.9 3.5 0.00 0.00 0.00 80 1020.4
20260507125510 51 205 1.7 4.3 0.00 0.00 0.00 80 1020.4
20260507125006 51 201 1.7 4.3 0.00 0.00 0.00 79 1020.4
20260507124526 51 256 2.6 4.3 0.00 0.00 0.00 78 1020.5
20260507124007 51 223 2.6 7.0 0.00 0.00 0.00 79 1020.5
20260507123506 51 225 2.6 7.0 0.00 0.00 0.00 78 1020.5
20260507123011 51 216 3.5 6.1 0.00 0.00 0.00 79 1020.5
20260507122505 51 244 1.7 3.5 0.00 0.00 0.00 80 1020.5
20260507122006 51 212 0.9 3.5 0.00 0.00 0.00 80 1020.5
20260507121518 51 209 2.6 5.2 0.00 0.00 0.00 80 1020.6
20260507121009 51 223 2.6 5.2 0.00 0.00 0.00 79 1020.6
20260507120509 51 222 1.7 7.0 0.00 0.00 0.00 79 1020.6
20260507120027 51 225 2.6 7.0 0.00 0.00 0.00 79 1020.7
20260507115510 51 232 1.7 4.3 0.00 0.00 0.00 79 1020.8
20260507115011 51 222 1.7 2.6 0.00 0.00 0.00 80 1020.7
20260507114523 51 247 1.7 2.6 0.00 0.00 0.00 80 1020.7
20260507114008 51 195 1.7 4.3 0.00 0.00 0.00 80 1020.8
20260507113512 51 224 1.7 4.3 0.00 0.00 0.00 80 1020.8
20260507113008 51 244 0.9 3.5 0.00 0.00 0.00 81 1020.9
20260507112505 51 238 0.9 3.5 0.00 0.00 0.00 81 1021.0
20260507112004 51 232 1.7 3.5 0.00 0.00 0.00 82 1021.0
20260507111517 51 275 1.7 3.5 0.00 0.00 0.00 81 1021.0
20260507111008 52 272 1.7 3.5 0.00 0.00 0.00 80 1020.9
20260507110506 52 242 1.7 3.5 0.00 0.00 0.00 79 1020.9
20260507110026 52 234 0.9 2.6 0.00 0.00 0.00 78 1020.9
20260507105510 52 236 0.9 2.6 0.00 0.00 0.00 78 1021.0
20260507105007 52 166 0.9 4.3 0.00 0.00 0.00 78 1021.0
20260507104524 52 261 2.6 4.3 0.00 0.00 0.00 78 1020.9
20260507104011 52 217 0.0 2.6 0.00 0.00 0.00 78 1021.0
20260507103508 52 211 0.9 3.5 0.00 0.00 0.00 78 1021.0
20260507103028 52 210 0.9 4.3 0.00 0.00 0.00 78 1021.0
20260507102509 52 232 1.7 4.3 0.00 0.00 0.00 77 1021.0
20260507102007 52 182 2.6 4.3 0.00 0.00 0.00 77 1021.0
20260507101510 52 215 2.6 3.5 0.00 0.00 0.00 78 1021.0
20260507101009 52 212 0.9 3.5 0.00 0.00 0.00 78 1021.0
20260507100505 52 207 1.7 4.3 0.00 0.00 0.00 78 1021.0
20260507100023 52 194 2.6 4.3 0.00 0.00 0.00 78 1021.0
20260507095506 52 223 1.7 3.5 0.00 0.00 0.00 78 1021.0
20260507095010 52 195 1.7 3.5 0.00 0.00 0.00 78 1020.9
20260507094523 52 237 0.9 3.5 0.00 0.00 0.00 78 1020.9
20260507094007 52 198 1.7 3.5 0.00 0.00 0.00 78 1020.9
20260507093507 52 228 1.7 5.2 0.00 0.00 0.00 78 1020.9
20260507093025 52 221 1.7 5.2 0.00 0.00 0.00 78 1021.0
20260507092514 52 225 1.7 5.2 0.00 0.00 0.00 78 1021.0
20260507092012 52 226 2.6 6.1 0.00 0.00 0.00 78 1021.0
20260507091526 52 211 2.6 6.1 0.00 0.00 0.00 78 1021.0
20260507091005 52 224 1.7 6.1 0.00 0.00 0.00 79 1021.0
20260507090510 52 248 2.6 5.2 0.00 0.00 0.00 79 1020.9
20260507090015 52 228 1.7 4.3 0.00 0.00 0.00 80 1021.0
20260507085506 52 211 2.6 4.3 0.00 0.00 0.00 80 1021.0
20260507085006 52 205 1.7 5.2 0.00 0.00 0.00 80 1021.0
20260507084520 52 239 2.6 5.2 0.00 0.00 0.00 80 1021.1
20260507084009 52 236 2.6 5.2 0.00 0.00 0.00 80 1021.0
20260507083510 52 211 2.6 7.0 0.00 0.00 0.00 81 1021.1
20260507083024 52 240 1.7 7.0 0.00 0.00 0.00 81 1021.1
20260507082510 52 192 2.6 6.1 0.00 0.00 0.00 82 1021.0
20260507082011 52 201 2.6 5.2 0.00 0.00 0.00 82 1021.1
20260507081528 52 227 1.7 5.2 0.00 0.00 0.00 82 1021.1
20260507081011 52 216 2.6 5.2 0.00 0.00 0.00 82 1021.1
20260507080507 52 226 2.6 3.5 0.00 0.00 0.00 82 1021.1
20260507080014 52 228 1.7 4.3 0.00 0.00 0.00 83 1021.1
20260507075507 52 194 1.7 4.3 0.00 0.00 0.00 82 1021.3
20260507075007 52 224 1.7 3.5 0.00 0.00 0.00 83 1021.2
20260507074519 52 188 0.9 3.5 0.00 0.00 0.00 83 1021.3
20260507074008 52 207 1.7 4.3 0.00 0.00 0.00 83 1021.3
20260507073506 52 208 2.6 4.3 0.00 0.00 0.00 83 1021.3
20260507073022 52 200 1.7 5.2 0.00 0.00 0.00 82 1021.1
20260507072515 52 205 1.7 5.2 0.00 0.00 0.00 82 1021.1
20260507072009 52 212 1.7 5.2 0.00 0.00 0.00 82 1021.1
20260507071523 52 197 2.6 5.2 0.00 0.01 0.00 82 1021.1
20260507071009 52 231 1.7 4.3 0.00 0.01 0.00 83 1021.1
20260507070511 52 239 0.9 5.2 0.00 0.01 0.00 83 1021.1
20260507070036 52 228 2.6 5.2 0.00 0.01 0.00 83 1021.2
20260507065503 52 228 2.6 4.3 0.00 0.01 0.01 83 1021.3
20260507065003 52 221 1.7 4.3 0.00 0.01 0.01 83 1021.3
20260507064505 52 229 1.7 4.3 0.00 0.01 0.01 84 1021.3
20260507064003 52 240 2.6 6.1 0.00 0.01 0.01 84 1021.3
20260507063500 52 190 2.6 6.1 0.00 0.01 0.01 84 1021.3
20260507063002 52 209 1.7 4.3 0.00 0.01 0.01 85 1021.3
20260507062505 52 276 2.6 4.3 0.00 0.01 0.01 85 1021.3
20260507062003 52 198 0.9 6.1 0.00 0.01 0.01 85 1021.3
20260507061502 52 240 2.6 6.1 0.00 0.01 0.01 85 1021.3
20260507061003 52 198 2.6 7.0 0.00 0.01 0.01 86 1021.3
20260507060502 52 250 4.3 7.0 0.00 0.01 0.01 86 1021.3
20260507060015 52 229 2.6 5.2 0.00 0.01 0.01 86 1021.3
20260507055503 52 230 3.5 6.1 0.00 0.01 0.01 86 1021.3
20260507055003 52 240 2.6 7.0 0.00 0.01 0.01 86 1021.1
20260507054506 52 242 2.6 7.0 0.00 0.01 0.01 86 1021.2
20260507054004 52 240 3.5 5.2 0.00 0.01 0.01 86 1021.1
20260507053504 52 263 3.5 5.2 0.00 0.01 0.01 86 1021.3
20260507053006 52 212 2.6 5.2 0.00 0.01 0.01 87 1021.1
20260507052503 52 233 2.6 6.1 0.00 0.01 0.01 87 1021.2
20260507052004 52 229 2.6 6.1 0.00 0.01 0.01 87 1021.2
20260507051507 52 232 2.6 4.3 0.00 0.01 0.01 87 1021.2
20260507051004 52 245 2.6 4.3 0.00 0.01 0.01 87 1021.2
20260507050504 52 260 0.9 5.2 0.00 0.01 0.01 86 1021.1
20260507050009 52 268 1.7 5.2 0.00 0.01 0.01 86 1021.1
20260507045504 52 268 1.7 6.1 0.00 0.01 0.01 86 1021.1
20260507045002 53 225 1.7 6.1 0.00 0.01 0.01 85 1021.2
20260507044506 53 261 2.6 7.0 0.00 0.01 0.01 84 1021.3
20260507044003 53 264 3.5 7.0 0.00 0.01 0.01 84 1021.2
20260507043503 53 234 2.6 6.1 0.00 0.01 0.01 83 1021.1
20260507043005 53 182 3.5 7.0 0.00 0.01 0.01 83 1021.1
20260507042503 53 240 1.7 8.7 0.00 0.01 0.01 83 1021.0
20260507042003 54 260 3.5 8.7 0.00 0.01 0.01 82 1021.0
20260507041520 54 223 3.5 7.0 0.00 0.01 0.01 81 1021.0
20260507041004 54 219 3.5 7.8 0.00 0.01 0.01 80 1021.0
20260507040505 54 224 3.5 7.8 0.00 0.01 0.01 80 1021.0
20260507040006 54 214 4.3 7.8 0.00 0.01 0.01 80 1021.0
20260507035503 54 283 3.5 9.6 0.00 0.01 0.01 79 1020.9
20260507035003 54 223 4.3 9.6 0.00 0.01 0.01 79 1020.9
20260507034506 54 233 6.1 9.6 0.00 0.01 0.01 79 1020.9
20260507034002 54 217 3.5 7.8 0.00 0.01 0.01 79 1020.8
20260507033504 54 246 3.5 7.8 0.00 0.01 0.01 79 1020.8
20260507033006 54 253 3.5 6.1 0.00 0.01 0.01 79 1020.7
20260507032506 54 223 2.6 7.0 0.00 0.01 0.01 79 1020.7
20260507032003 54 242 3.5 7.0 0.00 0.01 0.01 79 1020.7
20260507031507 54 213 1.7 7.8 0.00 0.01 0.01 79 1020.6
20260507031009 54 242 3.5 7.8 0.00 0.01 0.01 79 1020.6
20260507030506 55 263 2.6 7.0 0.00 0.01 0.01 79 1020.6
20260507030005 55 223 4.3 7.8 0.00 0.01 0.01 78 1020.6
20260507025504 55 235 2.6 7.8 0.00 0.01 0.01 78 1020.6
20260507025003 55 265 2.6 6.1 0.00 0.01 0.01 78 1020.6
20260507024509 55 236 1.7 6.1 0.00 0.01 0.01 78 1020.6
20260507024005 55 266 2.6 7.0 0.00 0.01 0.01 78 1020.5
20260507023507 55 218 3.5 7.8 0.00 0.01 0.01 77 1020.5
20260507023006 55 257 4.3 7.8 0.00 0.01 0.01 77 1020.6
20260507022507 55 206 2.6 9.6 0.00 0.01 0.01 77 1020.5
20260507022010 55 284 5.2 10.4 0.00 0.01 0.01 76 1020.5
20260507021508 55 248 6.1 10.4 0.00 0.01 0.01 76 1020.5
20260507021002 55 260 6.1 10.4 0.00 0.01 0.01 77 1020.5
20260507020505 55 269 3.5 9.6 0.00 0.01 0.01 77 1020.5
20260507020007 55 232 3.5 9.6 0.00 0.01 0.01 77 1020.5
20260507015506 56 240 5.2 10.4 0.00 0.01 0.01 76 1020.5
20260507015002 56 254 6.1 9.6 0.00 0.01 0.01 76 1020.5
20260507014510 56 250 3.5 9.6 0.00 0.01 0.01 75 1020.5
20260507014003 56 208 5.2 8.7 0.00 0.01 0.01 75 1020.5
20260507013505 56 249 5.2 8.7 0.00 0.01 0.01 75 1020.5
20260507013006 56 211 5.2 8.7 0.00 0.01 0.01 75 1020.5
20260507012507 56 213 4.3 7.8 0.00 0.01 0.01 75 1020.5
20260507012005 56 254 4.3 7.8 0.00 0.01 0.01 75 1020.5
20260507011516 56 240 4.3 7.8 0.00 0.01 0.01 75 1020.5
20260507011002 56 254 5.2 9.6 0.00 0.01 0.01 75 1020.5
20260507010506 56 249 4.3 10.4 0.00 0.01 0.01 75 1020.5
20260507010006 56 220 6.1 10.4 0.00 0.01 0.01 75 1020.5
20260507005506 56 217 6.1 9.6 0.00 0.01 0.01 75 1020.5
20260507005006 56 262 6.1 9.6 0.00 0.01 0.01 76 1020.6
20260507004517 56 246 4.3 9.6 0.00 0.01 0.01 75 1020.6
20260507004004 56 277 5.2 9.6 0.00 0.01 0.01 75 1020.6
20260507003506 56 233 4.3 11.3 0.00 0.01 0.01 76 1020.6
20260507003008 56 268 6.1 11.3 0.00 0.01 0.01 75 1020.5
20260507002506 56 223 5.2 10.4 0.00 0.01 0.01 76 1020.6
20260507002007 56 240 5.2 8.7 0.00 0.01 0.01 76 1020.6
20260507001508 56 276 4.3 8.7 0.00 0.01 0.01 76 1020.5
20260507001005 56 246 3.5 8.7 0.00 0.01 0.01 76 1020.5
20260507000505 56 228 3.5 7.8 0.00 0.01 0.01 77 1020.6
20260507000011 56 221 2.6 7.8 0.00 0.01 0.01 78 1020.5
20260506235506 56 259 3.5 8.7 0.00 0.01 0.01 76 1020.5
20260506235006 56 269 4.3 10.4 0.00 0.01 0.01 76 1020.6
20260506234511 56 267 4.3 10.4 0.00 0.01 0.01 76 1020.6
20260506234006 56 275 6.1 12.2 0.00 0.01 0.01 76 1020.6
20260506233506 57 263 5.2 12.2 0.00 0.01 0.01 75 1020.5
20260506233006 56 276 2.6 7.0 0.00 0.01 0.01 77 1020.6
20260506232503 56 260 5.2 9.6 0.00 0.01 0.01 76 1020.7
20260506232006 57 287 4.3 9.6 0.00 0.01 0.01 75 1020.7
20260506231522 57 281 4.3 8.7 0.00 0.01 0.01 75 1020.6
20260506231006 57 284 4.3 8.7 0.00 0.01 0.01 74 1020.6
20260506230504 57 242 4.3 11.3 0.00 0.01 0.01 74 1020.7
20260506230013 57 272 6.1 11.3 0.00 0.01 0.01 73 1020.6
20260506225505 57 254 5.2 9.6 0.00 0.01 0.01 73 1020.7
20260506225006 57 257 6.1 9.6 0.00 0.01 0.01 72 1020.7
20260506224513 57 261 6.1 8.7 0.00 0.01 0.01 73 1020.7
20260506224007 57 254 4.3 10.4 0.00 0.01 0.01 74 1020.7
20260506223507 57 275 6.1 10.4 0.00 0.01 0.01 74 1020.8
20260506223009 57 215 4.3 9.6 0.00 0.01 0.01 75 1020.7
20260506222507 57 261 5.2 9.6 0.00 0.01 0.01 74 1020.8
20260506222008 57 248 4.3 8.7 0.00 0.01 0.01 74 1020.9
20260506221508 57 261 4.3 9.6 0.00 0.01 0.01 75 1020.9
20260506221012 56 248 5.2 9.6 0.00 0.01 0.01 74 1021.0
20260506220504 56 236 4.3 8.7 0.00 0.01 0.01 75 1020.9
20260506220010 56 262 4.3 8.7 0.00 0.01 0.01 75 1020.9
20260506215509 56 235 3.5 9.6 0.00 0.01 0.01 76 1021.0
20260506215008 56 241 4.3 9.6 0.00 0.01 0.01 75 1021.0
20260506214511 56 259 4.3 9.6 0.00 0.01 0.01 75 1021.0
20260506214008 56 250 4.3 8.7 0.00 0.01 0.01 75 1021.0
20260506213506 56 284 4.3 8.7 0.00 0.01 0.01 76 1021.0
20260506213012 56 204 5.2 8.7 0.00 0.01 0.01 75 1021.0
20260506212506 56 271 5.2 8.7 0.00 0.01 0.01 75 1021.0
20260506212007 56 279 4.3 9.6 0.00 0.01 0.01 75 1021.0
20260506211516 56 252 5.2 9.6 0.00 0.01 0.01 74 1021.1
20260506211008 56 194 4.3 7.8 0.00 0.01 0.01 76 1020.9
20260506210507 56 220 4.3 7.8 0.00 0.01 0.01 75 1021.0
20260506210016 56 270 4.3 7.8 0.00 0.01 0.01 76 1021.0
20260506205509 56 259 4.3 7.8 0.00 0.01 0.01 76 1021.0
20260506205005 56 305 3.5 7.8 0.00 0.01 0.01 76 1020.9
20260506204515 56 249 4.3 12.2 0.00 0.01 0.01 77 1021.0
20260506204005 56 275 5.2 12.2 0.00 0.01 0.01 76 1020.9
20260506203511 56 302 7.0 10.4 0.00 0.01 0.01 75 1020.8
20260506203003 56 242 4.3 10.4 0.00 0.01 0.01 75 1020.8
20260506202503 56 241 4.3 11.3 0.00 0.01 0.01 76 1020.8
20260506202006 56 256 6.1 11.3 0.00 0.01 0.01 75 1020.8
20260506201507 56 257 4.3 8.7 0.00 0.01 0.01 76 1020.8
20260506201007 56 279 4.3 9.6 0.00 0.01 0.01 75 1020.8
20260506200506 56 220 4.3 9.6 0.00 0.01 0.01 76 1020.7
20260506200011 56 276 3.5 8.7 0.00 0.01 0.01 76 1020.7
20260506195507 56 202 2.6 8.7 0.00 0.01 0.01 77 1020.7
20260506195008 56 273 4.3 8.7 0.00 0.01 0.01 75 1020.7
20260506194515 56 283 4.3 8.7 0.00 0.01 0.01 76 1020.7
20260506194007 56 231 4.3 8.7 0.00 0.01 0.01 77 1020.6
20260506193505 56 252 4.3 8.7 0.00 0.01 0.01 77 1020.6
20260506193017 56 273 2.6 7.0 0.00 0.01 0.01 78 1020.6
20260506192506 56 253 3.5 7.0 0.00 0.01 0.01 78 1020.5
20260506192004 56 255 2.6 7.8 0.00 0.01 0.01 78 1020.5
20260506191507 55 246 3.5 7.8 0.00 0.01 0.01 77 1020.4
20260506191003 55 264 3.5 7.0 0.00 0.01 0.01 78 1020.5
20260506190507 55 262 3.5 7.0 0.00 0.01 0.01 78 1020.5
20260506190010 55 219 2.6 7.8 0.00 0.01 0.01 79 1020.6
20260506185504 55 227 3.5 7.0 0.00 0.01 0.01 79 1020.6
20260506185009 55 259 3.5 7.0 0.00 0.01 0.01 79 1020.5
20260506184516 54 254 4.3 7.8 0.00 0.01 0.01 79 1020.5
20260506184011 54 292 3.5 10.4 0.00 0.01 0.01 80 1020.5
20260506183508 54 267 1.7 10.4 0.00 0.01 0.01 80 1020.6
20260506183028 54 229 2.6 6.1 0.00 0.01 0.01 81 1020.6
20260506182504 54 265 2.6 6.1 0.00 0.01 0.01 81 1020.6
20260506182006 54 253 1.7 6.1 0.00 0.01 0.01 80 1020.6
20260506181516 54 276 2.6 6.1 0.00 0.01 0.01 80 1020.4
20260506181002 54 234 2.6 7.8 0.00 0.01 0.01 80 1020.4
20260506180504 54 221 3.5 7.8 0.00 0.01 0.01 81 1020.3
20260506180011 54 254 3.5 7.0 0.00 0.01 0.01 81 1020.3
20260506175507 54 260 3.5 6.1 0.00 0.01 0.01 82 1020.4
20260506175006 54 246 2.6 7.0 0.00 0.01 0.01 82 1020.3
20260506174512 54 275 2.6 7.8 0.00 0.01 0.01 83 1020.3
20260506174008 53 273 3.5 9.6 0.00 0.01 0.01 83 1020.4
20260506173508 53 213 5.2 9.6 0.00 0.01 0.01 84 1020.3
20260506173019 53 309 5.2 8.7 0.00 0.01 0.01 84 1020.3
20260506172508 53 225 4.3 7.8 0.00 0.01 0.01 84 1020.4
20260506172008 53 277 2.6 8.7 0.00 0.01 0.01 85 1020.4
20260506171526 53 286 4.3 8.7 0.00 0.01 0.01 85 1020.4
20260506171009 53 229 4.3 8.7 0.00 0.01 0.01 86 1020.4
20260506170510 53 276 4.3 8.7 0.00 0.01 0.01 85 1020.3
20260506170007 53 238 4.3 7.0 0.00 0.01 0.01 84 1020.3
20260506165505 54 261 3.5 7.8 0.00 0.01 0.01 84 1020.4
20260506165008 54 273 4.3 7.8 0.00 0.01 0.01 84 1020.4
20260506164512 54 192 3.5 6.1 0.00 0.01 0.01 85 1020.3
20260506164011 53 254 1.7 6.1 0.00 0.01 0.01 86 1020.1
20260506163506 53 229 2.6 6.1 0.00 0.01 0.01 87 1020.0
20260506163015 53 213 3.5 6.1 0.00 0.01 0.01 86 1019.9
20260506162507 53 209 2.6 6.1 0.00 0.01 0.01 88 1019.9
20260506162013 53 238 3.5 6.1 0.00 0.01 0.01 88 1019.7
20260506161522 52 240 1.7 4.3 0.00 0.01 0.01 89 1019.7
20260506161008 52 203 2.6 4.3 0.00 0.01 0.01 90 1019.7
20260506160507 52 261 2.6 4.3 0.00 0.01 0.01 91 1019.8
20260506160017 52 240 2.6 4.3 0.00 0.01 0.01 91 1019.9
20260506155508 51 231 2.6 4.3 0.00 0.01 0.01 92 1020.0
20260506155009 51 219 2.6 3.5 0.00 0.01 0.01 92 1020.1
20260506154508 51 259 1.7 3.5 0.00 0.01 0.01 92 1020.1
20260506154008 51 265 1.7 4.3 0.00 0.01 0.01 93 1020.0
20260506153506 51 266 1.7 4.3 0.00 0.01 0.01 93 1020.0
20260506153014 51 279 1.7 5.2 0.00 0.01 0.01 93 1020.0
20260506152506 51 275 1.7 5.2 0.00 0.01 0.01 93 1019.8
20260506152008 51 234 3.5 5.2 0.00 0.01 0.01 93 1019.6
20260506151520 51 248 2.6 4.3 0.00 0.01 0.01 93 1019.5
20260506151009 51 248 2.6 4.3 0.00 0.01 0.01 93 1019.6
20260506150509 51 248 1.7 4.3 0.00 0.01 0.01 93 1019.6
20260506150020 51 248 2.6 6.1 0.00 0.01 0.01 93 1019.7
20260506145508 51 273 2.6 6.1 0.00 0.01 0.01 93 1019.6
20260506145009 51 219 1.7 5.2 0.00 0.01 0.01 93 1019.7
20260506144523 51 246 2.6 5.2 0.00 0.01 0.01 93 1019.7
20260506144008 51 251 1.7 5.2 0.00 0.01 0.01 93 1019.7
20260506143505 51 250 1.7 3.5 0.00 0.01 0.01 92 1019.6
20260506143022 51 269 1.7 3.5 0.00 0.01 0.01 92 1019.5